START_TIME,STEP,MOV.,A46,t_acc.,A13,t_acc.,M47,t_acc.,A17,t_acc.,A28,t_acc.,M38,t_acc.
1979-07-19 23:00:25.320 ,1,0,,0,5.,4.8,0.,4.8,,0,0.,4.8,4.,4.8
1979-07-19 23:00:30.120 ,1,0,,0,8.,4.8,1.,4.8,,0,0.,4.8,0.,4.8
1979-07-19 23:00:34.920 ,1,0,,0,7.,4.8,0.,4.8,,0,0.,4.8,1.,4.8
1979-07-19 23:00:39.720 ,1,0,,0,0.,4.8,0.,4.8,,0,0.,4.8,4.,4.8
1979-07-19 23:00:44.520 ,1,0,,0,0.,4.8,0.,4.8,,0,0.,4.8,1.,4.8
1979-07-19 23:01:13.320 ,2,0,,0,76.,4.8,7.,4.8,,0,0.,4.8,18.,4.8
1979-07-19 23:01:18.120 ,2,0,,0,92.,4.8,12.,4.8,,0,0.,4.8,23.,4.8
1979-07-19 23:01:22.920 ,2,0,,0,68.,4.8,3.,4.8,,0,0.,4.8,19.,4.8
1979-07-19 23:01:27.720 ,2,0,,0,0.,4.8,0.,4.8,,0,0.,4.8,19.,4.8
1979-07-19 23:01:32.520 ,2,0,,0,0.,4.8,0.,4.8,,0,0.,4.8,21.,4.8
1979-07-19 23:01:37.320 ,3,0,,0,0.,4.8,0.,4.8,,0,0.,4.8,13.,4.8
1979-07-19 23:01:42.120 ,3,0,,0,0.,4.8,0.,4.8,,0,0.,4.8,92.,4.8
1979-07-19 23:01:46.920 ,3,0,,0,72.,4.8,4.,4.8,,0,0.,4.8,280.,4.8
1979-07-19 23:01:51.720 ,3,0,,0,440.,4.8,27.,4.8,,0,0.,4.8,288.,4.8
1979-07-19 23:01:56.520 ,3,0,,0,464.,4.8,26.,4.8,,0,0.,4.8,288.,4.8
1979-07-19 23:02:01.320 ,3,0,,0,496.,4.8,22.,4.8,,0,0.,4.8,288.,4.8
1979-07-19 23:02:06.120 ,3,0,,0,488.,4.8,26.,4.8,,0,0.,4.8,304.,4.8
1979-07-19 23:02:10.920 ,3,0,,0,448.,4.8,22.,4.8,,0,0.,4.8,296.,4.8
1979-07-19 23:02:15.720 ,3,0,,0,0.,4.8,0.,4.8,,0,0.,4.8,328.,4.8
1979-07-19 23:02:20.520 ,3,0,,0,0.,4.8,0.,4.8,,0,0.,4.8,296.,4.8
1979-07-19 23:02:25.320 ,4,0,,0,0.,4.8,0.,4.8,,0,0.,4.8,312.,4.8
1979-07-19 23:02:30.120 ,4,0,,0,0.,4.8,0.,4.8,,0,0.,4.8,256.,4.8
1979-07-19 23:02:34.920 ,4,0,,0,27.,4.8,2.,4.8,,0,0.,4.8,102.,4.8
1979-07-19 23:02:39.720 ,4,0,,0,140.,4.8,6.,4.8,,0,0.,4.8,100.,4.8
1979-07-19 23:02:44.520 ,4,0,,0,132.,4.8,4.,4.8,,0,0.,4.8,92.,4.8
1979-07-19 23:02:49.320 ,4,0,,0,168.,4.8,7.,4.8,,0,0.,4.8,98.,4.8
1979-07-19 23:02:54.120 ,4,0,,0,172.,4.8,11.,4.8,,0,0.,4.8,124.,4.8
1979-07-19 23:02:58.920 ,4,0,,0,144.,4.8,5.,4.8,,0,0.,4.8,100.,4.8
1979-07-19 23:03:03.720 ,4,0,,0,0.,4.8,0.,4.8,,0,0.,4.8,112.,4.8
1979-07-19 23:03:08.520 ,4,0,,0,0.,4.8,0.,4.8,,0,0.,4.8,112.,4.8
1979-07-19 23:03:13.320 ,5,0,,0,0.,4.8,0.,4.8,,0,0.,4.8,126.,4.8
1979-07-19 23:03:18.120 ,5,0,,0,0.,4.8,0.,4.8,,0,0.,4.8,78.,4.8
1979-07-19 23:03:22.920 ,5,0,,0,5.,4.8,0.,4.8,,0,0.,4.8,6.,4.8
1979-07-19 23:03:27.720 ,5,0,,0,12.,4.8,0.,4.8,,0,0.,4.8,5.,4.8
1979-07-19 23:03:32.520 ,5,0,,0,13.,4.8,2.,4.8,,0,0.,4.8,17.,4.8
1979-07-19 23:03:37.320 ,5,0,,0,22.,4.8,3.,4.8,,0,0.,4.8,6.,4.8
1979-07-19 23:03:42.120 ,5,0,,0,15.,4.8,0.,4.8,,0,0.,4.8,10.,4.8
1979-07-19 23:03:46.920 ,5,0,,0,14.,4.8,4.,4.8,,0,0.,4.8,8.,4.8
1979-07-19 23:03:51.720 ,5,0,,0,0.,4.8,0.,4.8,,0,0.,4.8,6.,4.8
1979-07-19 23:03:56.520 ,5,0,,0,0.,4.8,0.,4.8,,0,0.,4.8,6.,4.8
1979-07-19 23:04:01.320 ,6,0,,0,0.,4.8,0.,4.8,,0,0.,4.8,7.,4.8
1979-07-19 23:04:06.120 ,6,0,,0,0.,4.8,0.,4.8,,0,0.,4.8,5.,4.8
1979-07-19 23:04:10.920 ,6,0,,0,0.,4.8,0.,4.8,,0,0.,4.8,1.,4.8
1979-07-19 23:04:15.720 ,6,0,,0,4.,4.8,0.,4.8,,0,0.,4.8,0.,4.8
1979-07-19 23:04:20.520 ,6,0,,0,4.,4.8,0.,4.8,,0,0.,4.8,0.,4.8
1979-07-19 23:04:25.320 ,6,0,,0,2.,4.8,0.,4.8,,0,0.,4.8,0.,4.8
1979-07-19 23:04:30.120 ,6,0,,0,7.,4.8,0.,4.8,,0,0.,4.8,0.,4.8
1979-07-19 23:04:34.920 ,6,0,,0,7.,4.8,0.,4.8,,0,0.,4.8,2.,4.8
1979-07-19 23:04:39.710 ,6,0,,0,0.,4.8,0.,4.8,,0,0.,4.8,3.,4.8
1979-07-19 23:04:44.520 ,6,0,,0,0.,4.8,0.,4.8,,0,0.,4.8,0.,4.8
1979-07-19 23:04:49.320 ,7,0,,0,0.,4.8,0.,4.8,,0,0.,4.8,0.,4.8
1979-07-19 23:04:54.120 ,7,0,,0,0.,4.8,0.,4.8,,0,0.,4.8,1.,4.8
1979-07-19 23:04:58.920 ,7,0,,0,4.,4.8,0.,4.8,,0,0.,4.8,0.,4.8
1979-07-19 23:05:03.720 ,7,0,,0,21.,4.8,0.,4.8,,0,0.,4.8,0.,4.8
1979-07-19 23:05:08.520 ,7,0,,0,13.,4.8,0.,4.8,,0,0.,4.8,0.,4.8
1979-07-19 23:05:13.320 ,7,0,,0,11.,4.8,0.,4.8,,0,1.,4.8,0.,4.8
1979-07-19 23:05:18.120 ,7,0,,0,7.,4.8,0.,4.8,,0,0.,4.8,0.,4.8
1979-07-19 23:05:22.920 ,7,0,,0,8.,4.8,0.,4.8,,0,0.,4.8,0.,4.8
1979-07-19 23:05:27.710 ,7,0,,0,0.,4.8,0.,4.8,,0,0.,4.8,0.,4.8
1979-07-19 23:05:32.520 ,7,0,,0,0.,4.8,0.,4.8,,0,0.,4.8,0.,4.8
1979-07-19 23:05:37.320 ,7,0,,0,0.,4.8,0.,4.8,,0,0.,4.8,0.,4.8
1979-07-19 23:05:42.110 ,7,0,,0,0.,4.8,0.,4.8,,0,0.,4.8,0.,4.8
1979-07-19 23:05:46.920 ,7,0,,0,0.,4.8,0.,4.8,,0,0.,4.8,0.,4.8
1979-07-19 23:05:51.710 ,7,0,,0,11.,4.8,0.,4.8,,0,0.,4.8,0.,4.8
1979-07-19 23:05:56.520 ,7,0,,0,14.,4.8,0.,4.8,,0,0.,4.8,0.,4.8
1979-07-19 23:06:01.320 ,7,0,,0,13.,4.8,0.,4.8,,0,0.,4.8,0.,4.8
1979-07-19 23:06:06.110 ,7,0,,0,9.,4.8,0.,4.8,,0,0.,4.8,0.,4.8
1979-07-19 23:06:10.920 ,7,0,,0,7.,4.8,0.,4.8,,0,0.,4.8,0.,4.8
1979-07-19 23:06:15.710 ,7,0,,0,0.,4.8,0.,4.8,,0,0.,4.8,0.,4.8
1979-07-19 23:06:20.520 ,7,0,,0,0.,4.8,0.,4.8,,0,0.,4.8,0.,4.8
1979-07-19 23:06:25.320 ,6,0,,0,0.,4.8,0.,4.8,,0,0.,4.8,0.,4.8
1979-07-19 23:06:30.120 ,6,0,,0,0.,4.8,0.,4.8,,0,0.,4.8,0.,4.8
1979-07-19 23:06:34.920 ,6,0,,0,1.,4.8,0.,4.8,,0,0.,4.8,1.,4.8
1979-07-19 23:06:39.710 ,6,0,,0,2.,4.8,1.,4.8,,0,0.,4.8,0.,4.8
1979-07-19 23:06:44.520 ,6,0,,0,3.,4.8,0.,4.8,,0,0.,4.8,0.,4.8
1979-07-19 23:06:49.320 ,6,0,,0,5.,4.8,0.,4.8,,0,0.,4.8,3.,4.8
1979-07-19 23:06:54.110 ,6,0,,0,2.,4.8,0.,4.8,,0,0.,4.8,1.,4.8
1979-07-19 23:06:58.920 ,6,0,,0,7.,4.8,0.,4.8,,0,0.,4.8,0.,4.8
1979-07-19 23:07:03.720 ,6,0,,0,0.,4.8,0.,4.8,,0,0.,4.8,0.,4.8
1979-07-19 23:07:08.520 ,6,0,,0,0.,4.8,0.,4.8,,0,0.,4.8,0.,4.8
1979-07-19 23:07:13.320 ,5,0,,0,0.,4.8,0.,4.8,,0,0.,4.8,0.,4.8
1979-07-19 23:07:18.120 ,5,0,,0,0.,4.8,0.,4.8,,0,0.,4.8,3.,4.8
1979-07-19 23:07:22.920 ,5,0,,0,4.,4.8,1.,4.8,,0,0.,4.8,7.,4.8
1979-07-19 23:07:27.710 ,5,0,,0,29.,4.8,2.,4.8,,0,0.,4.8,10.,4.8
1979-07-19 23:07:32.520 ,5,0,,0,22.,4.8,2.,4.8,,0,0.,4.8,12.,4.8
1979-07-19 23:07:37.320 ,5,0,,0,28.,4.8,1.,4.8,,0,0.,4.8,6.,4.8
1979-07-19 23:07:42.110 ,5,0,,0,23.,4.8,0.,4.8,,0,0.,4.8,9.,4.8
1979-07-19 23:07:46.920 ,5,0,,0,14.,4.8,1.,4.8,,0,0.,4.8,6.,4.8
1979-07-19 23:07:51.710 ,5,0,,0,0.,4.8,0.,4.8,,0,0.,4.8,14.,4.8
1979-07-19 23:07:56.520 ,5,0,,0,0.,4.8,0.,4.8,,0,0.,4.8,11.,4.8
1979-07-19 23:08:01.320 ,4,0,,0,0.,4.8,0.,4.8,,0,0.,4.8,6.,4.8
1979-07-19 23:08:06.110 ,4,0,,0,0.,4.8,0.,4.8,,0,0.,4.8,39.,4.8
1979-07-19 23:08:10.920 ,4,0,,0,23.,4.8,3.,4.8,,0,0.,4.8,100.,4.8
1979-07-19 23:08:15.710 ,4,0,,0,164.,4.8,10.,4.8,,0,0.,4.8,128.,4.8
1979-07-19 23:08:20.520 ,4,0,,0,184.,4.8,4.,4.8,,0,0.,4.8,120.,4.8
1979-07-19 23:08:25.320 ,4,0,,0,196.,4.8,13.,4.8,,0,0.,4.8,100.,4.8
1979-07-19 23:08:30.120 ,4,0,,0,188.,4.8,6.,4.8,,0,0.,4.8,132.,4.8
1979-07-19 23:08:34.920 ,4,0,,0,136.,4.8,4.,4.8,,0,0.,4.8,140.,4.8
1979-07-19 23:08:39.720 ,4,0,,0,0.,4.8,0.,4.8,,0,0.,4.8,144.,4.8
1979-07-19 23:08:44.520 ,4,0,,0,0.,4.8,0.,4.8,,0,0.,4.8,144.,4.8
1979-07-19 23:08:49.320 ,3,0,,0,0.,4.8,0.,4.8,,0,0.,4.8,156.,4.8
1979-07-19 23:08:54.110 ,3,0,,0,0.,4.8,0.,4.8,,0,0.,4.8,160.,4.8
1979-07-19 23:08:58.920 ,3,0,,0,52.,4.8,5.,4.8,,0,0.,4.8,236.,4.8
1979-07-19 23:09:03.720 ,3,0,,0,344.,4.8,19.,4.8,,0,0.,4.8,204.,4.8
1979-07-19 23:09:08.520 ,3,0,,0,328.,4.8,12.,4.8,,0,0.,4.8,208.,4.8
1979-07-19 23:09:13.320 ,3,0,,0,296.,4.8,10.,4.8,,0,0.,4.8,208.,4.8
1979-07-19 23:09:18.110 ,3,0,,0,328.,4.8,15.,4.8,,0,0.,4.8,216.,4.8
1979-07-19 23:09:22.920 ,3,0,,0,280.,4.8,13.,4.8,,0,0.,4.8,192.,4.8
1979-07-19 23:09:27.720 ,3,0,,0,0.,4.8,0.,4.8,,0,0.,4.8,228.,4.8
1979-07-19 23:09:32.520 ,3,0,,0,0.,4.8,0.,4.8,,0,0.,4.8,220.,4.8
1979-07-19 23:09:37.320 ,2,0,,0,0.,4.8,0.,4.8,,0,0.,4.8,220.,4.8
1979-07-19 23:09:42.110 ,2,0,,0,0.,4.8,0.,4.8,,0,0.,4.8,148.,4.8
1979-07-19 23:09:46.920 ,2,0,,0,4.,4.8,0.,4.8,,0,0.,4.8,26.,4.8
1979-07-19 23:09:51.720 ,2,0,,0,36.,4.8,3.,4.8,,0,0.,4.8,23.,4.8
1979-07-19 23:09:56.520 ,2,0,,0,34.,4.8,5.,4.8,,0,0.,4.8,16.,4.8
1979-07-19 23:10:01.320 ,2,0,,0,46.,4.8,4.,4.8,,0,0.,4.8,24.,4.8
1979-07-19 23:10:06.110 ,2,0,,0,40.,4.8,4.,4.8,,0,0.,4.8,20.,4.8
1979-07-19 23:10:10.920 ,2,0,,0,49.,4.8,1.,4.8,,0,0.,4.8,19.,4.8
1979-07-19 23:10:15.720 ,2,0,,0,0.,4.8,0.,4.8,,0,0.,4.8,13.,4.8
1979-07-19 23:10:20.520 ,2,0,,0,0.,4.8,0.,4.8,,0,0.,4.8,14.,4.8
1979-07-19 23:10:25.320 ,1,0,,0,0.,4.8,0.,4.8,,0,0.,4.8,8.,4.8
1979-07-19 23:10:30.110 ,1,0,,0,0.,4.8,0.,4.8,,0,0.,4.8,8.,4.8
1979-07-19 23:10:34.920 ,1,0,,0,2.,4.8,0.,4.8,,0,0.,4.8,0.,4.8
1979-07-19 23:10:39.720 ,1,0,,0,2.,4.8,1.,4.8,,0,0.,4.8,0.,4.8
1979-07-19 23:10:44.520 ,1,0,,0,3.,4.8,0.,4.8,,0,0.,4.8,0.,4.8
1979-07-19 23:10:49.320 ,1,0,,0,2.,4.8,0.,4.8,,0,0.,4.8,0.,4.8
1979-07-19 23:10:54.110 ,1,0,,0,3.,4.8,0.,4.8,,0,0.,4.8,0.,4.8
1979-07-19 23:10:58.920 ,1,0,,0,2.,4.8,0.,4.8,,0,0.,4.8,0.,4.8
1979-07-19 23:11:03.720 ,1,0,,0,0.,4.8,0.,4.8,,0,0.,4.8,0.,4.8
1979-07-19 23:11:08.520 ,1,0,,0,0.,4.8,0.,4.8,,0,0.,4.8,0.,4.8
1979-07-19 23:11:13.320 ,0,0,,0,0.,4.8,0.,4.8,,0,0.,4.8,1.,4.8
1979-07-19 23:11:18.110 ,0,0,,0,0.,4.8,0.,4.8,,0,0.,4.8,0.,4.8
1979-07-19 23:11:22.920 ,0,0,,0,0.,4.8,0.,4.8,,0,0.,4.8,0.,4.8
1979-07-19 23:11:27.720 ,0,0,,0,4.,4.8,0.,4.8,,0,0.,4.8,0.,4.8
1979-07-19 23:11:32.520 ,0,0,,0,3.,4.8,0.,4.8,,0,0.,4.8,0.,4.8
1979-07-19 23:11:37.320 ,0,0,,0,2.,4.8,0.,4.8,,0,0.,4.8,0.,4.8
1979-07-19 23:11:42.110 ,0,0,,0,4.,4.8,0.,4.8,,0,0.,4.8,0.,4.8
1979-07-19 23:11:46.920 ,0,0,,0,2.,4.8,0.,4.8,,0,0.,4.8,0.,4.8
1979-07-19 23:11:51.720 ,0,0,,0,0.,4.8,0.,4.8,,0,0.,4.8,0.,4.8
1979-07-19 23:11:56.520 ,0,0,,0,0.,4.8,0.,4.8,,0,0.,4.8,0.,4.8
1979-07-19 23:12:01.320 ,0,0,,0,0.,4.8,0.,4.8,,0,0.,4.8,0.,4.8
1979-07-19 23:12:06.110 ,0,0,,0,0.,4.8,0.,4.8,,0,0.,4.8,0.,4.8
1979-07-19 23:12:10.910 ,0,0,,0,0.,4.8,0.,4.8,,0,0.,4.8,0.,4.8
1979-07-19 23:12:15.720 ,0,0,,0,1.,4.8,0.,4.8,,0,0.,4.8,0.,4.8
1979-07-19 23:12:20.520 ,0,0,,0,1.,4.8,0.,4.8,,0,0.,4.8,0.,4.8
1979-07-19 23:12:25.320 ,0,0,,0,2.,4.8,0.,4.8,,0,0.,4.8,0.,4.8
1979-07-19 23:12:30.110 ,0,0,,0,1.,4.8,0.,4.8,,0,0.,4.8,1.,4.8
1979-07-19 23:12:34.920 ,0,0,,0,2.,4.8,0.,4.8,,0,0.,4.8,0.,4.8
1979-07-19 23:12:39.720 ,0,0,,0,1.,4.8,0.,4.8,,0,0.,4.8,0.,4.8
1979-07-19 23:12:44.520 ,0,0,,0,0.,4.8,0.,4.8,,0,0.,4.8,0.,4.8
1979-07-19 23:12:49.320 ,1,0,,0,0.,4.8,0.,4.8,,0,0.,4.8,0.,4.8
1979-07-19 23:12:54.110 ,1,0,,0,0.,4.8,0.,4.8,,0,0.,4.8,0.,4.8
1979-07-19 23:12:58.920 ,1,0,,0,0.,4.8,0.,4.8,,0,0.,4.8,0.,4.8
1979-07-19 23:13:03.720 ,1,0,,0,2.,4.8,0.,4.8,,0,0.,4.8,0.,4.8
1979-07-19 23:13:08.520 ,1,0,,0,4.,4.8,1.,4.8,,0,0.,4.8,0.,4.8
1979-07-19 23:13:13.320 ,1,0,,0,4.,4.8,1.,4.8,,0,0.,4.8,0.,4.8
1979-07-19 23:13:18.110 ,1,0,,0,1.,4.8,0.,4.8,,0,0.,4.8,2.,4.8
1979-07-19 23:13:22.920 ,1,0,,0,3.,4.8,1.,4.8,,0,0.,4.8,0.,4.8
1979-07-19 23:13:27.720 ,1,0,,0,0.,4.8,0.,4.8,,0,0.,4.8,0.,4.8
1979-07-19 23:13:32.520 ,1,0,,0,1.,4.8,0.,4.8,,0,0.,4.8,0.,4.8
1979-07-19 23:13:37.320 ,2,0,,0,0.,4.8,0.,4.8,,0,0.,4.8,0.,4.8
1979-07-19 23:13:42.110 ,2,0,,0,0.,4.8,0.,4.8,,0,0.,4.8,4.,4.8
1979-07-19 23:13:46.920 ,2,0,,0,10.,4.8,1.,4.8,,0,0.,4.8,12.,4.8
1979-07-19 23:13:51.720 ,2,0,,0,38.,4.8,0.,4.8,,0,0.,4.8,17.,4.8
1979-07-19 23:13:56.520 ,2,0,,0,49.,4.8,4.,4.8,,0,0.,4.8,7.,4.8
1979-07-19 23:14:01.320 ,2,0,,0,36.,4.8,2.,4.8,,0,0.,4.8,15.,4.8
1979-07-19 23:14:06.110 ,2,0,,0,41.,4.8,2.,4.8,,0,0.,4.8,19.,4.8
1979-07-19 23:14:10.910 ,2,0,,0,24.,4.8,2.,4.8,,0,0.,4.8,17.,4.8
1979-07-19 23:14:15.720 ,2,0,,0,0.,4.8,0.,4.8,,0,0.,4.8,12.,4.8
1979-07-19 23:14:20.520 ,2,0,,0,0.,4.8,0.,4.8,,0,0.,4.8,9.,4.8
1979-07-19 23:14:25.320 ,3,0,,0,0.,4.8,0.,4.8,,0,0.,4.8,10.,4.8
1979-07-19 23:14:30.110 ,3,0,,0,1.,4.8,0.,4.8,,0,0.,4.8,122.,4.8
1979-07-19 23:14:34.920 ,3,0,,0,152.,4.8,6.,4.8,,0,0.,4.8,384.,4.8
1979-07-19 23:14:39.720 ,3,0,,0,784.,4.8,22.,4.8,,0,0.,4.8,368.,4.8
1979-07-19 23:14:44.520 ,3,0,,0,896.,4.8,28.,4.8,,0,0.,4.8,408.,4.8
1979-07-19 23:14:49.320 ,3,0,,0,880.,4.8,38.,4.8,,0,0.,4.8,376.,4.8
1979-07-19 23:14:54.110 ,3,0,,0,784.,4.8,32.,4.8,,0,0.,4.8,328.,4.8
1979-07-19 23:14:58.920 ,3,0,,0,640.,4.8,29.,4.8,,0,0.,4.8,312.,4.8
1979-07-19 23:15:03.720 ,3,0,,0,0.,4.8,0.,4.8,,0,0.,4.8,312.,4.8
1979-07-19 23:15:08.520 ,3,0,,0,0.,4.8,0.,4.8,,0,0.,4.8,328.,4.8
1979-07-19 23:15:13.320 ,4,0,,0,0.,4.8,0.,4.8,,0,0.,4.8,336.,4.8
1979-07-19 23:15:18.110 ,4,0,,0,0.,4.8,0.,4.8,,0,0.,4.8,360.,4.8
1979-07-19 23:15:22.910 ,4,0,,0,124.,4.8,9.,4.8,,0,0.,4.8,328.,4.8
1979-07-19 23:15:27.720 ,4,0,,0,704.,4.8,29.,4.8,,0,0.,4.8,296.,4.8
1979-07-19 23:15:32.520 ,4,0,,0,720.,4.8,15.,4.8,,0,0.,4.8,296.,4.8
1979-07-19 23:15:37.320 ,4,0,,0,736.,4.8,21.,4.8,,0,0.,4.8,336.,4.8
1979-07-19 23:15:42.110 ,4,0,,0,784.,4.8,21.,4.8,,0,0.,4.8,328.,4.8
1979-07-19 23:15:46.920 ,4,0,,0,640.,4.8,16.,4.8,,0,0.,4.8,312.,4.8
1979-07-19 23:15:51.720 ,4,0,,0,0.,4.8,0.,4.8,,0,0.,4.8,360.,4.8
1979-07-19 23:15:56.520 ,4,0,,0,0.,4.8,0.,4.8,,0,0.,4.8,360.,4.8
1979-07-19 23:16:01.320 ,5,0,,0,0.,4.8,0.,4.8,,0,0.,4.8,336.,4.8
1979-07-19 23:16:06.110 ,5,0,,0,0.,4.8,0.,4.8,,0,0.,4.8,220.,4.8
1979-07-19 23:16:10.910 ,5,0,,0,0.,4.8,0.,4.8,,0,0.,4.8,4.,4.8
1979-07-19 23:16:15.720 ,5,0,,0,23.,4.8,2.,4.8,,0,0.,4.8,5.,4.8
1979-07-19 23:16:20.520 ,5,0,,0,17.,4.8,1.,4.8,,0,0.,4.8,6.,4.8
1979-07-19 23:16:25.320 ,5,0,,0,23.,4.8,3.,4.8,,0,0.,4.8,3.,4.8
1979-07-19 23:16:30.110 ,5,0,,0,26.,4.8,3.,4.8,,0,0.,4.8,9.,4.8
1979-07-19 23:16:34.920 ,5,0,,0,29.,4.8,2.,4.8,,0,0.,4.8,5.,4.8
1979-07-19 23:16:39.720 ,5,0,,0,0.,4.8,0.,4.8,,0,0.,4.8,10.,4.8
1979-07-19 23:16:44.520 ,5,0,,0,0.,4.8,0.,4.8,,0,0.,4.8,6.,4.8
1979-07-19 23:16:49.320 ,6,0,,0,0.,4.8,0.,4.8,,0,0.,4.8,6.,4.8
1979-07-19 23:16:54.110 ,6,0,,0,0.,4.8,0.,4.8,,0,0.,4.8,8.,4.8
1979-07-19 23:16:58.920 ,6,0,,0,2.,4.8,0.,4.8,,0,0.,4.8,0.,4.8
1979-07-19 23:17:03.720 ,6,0,,0,6.,4.8,0.,4.8,,0,0.,4.8,0.,4.8
1979-07-19 23:17:08.520 ,6,0,,0,2.,4.8,0.,4.8,,0,0.,4.8,0.,4.8
1979-07-19 23:17:13.310 ,6,0,,0,6.,4.8,0.,4.8,,0,0.,4.8,0.,4.8
1979-07-19 23:17:18.110 ,6,0,,0,5.,4.8,0.,4.8,,0,0.,4.8,0.,4.8
1979-07-19 23:17:22.910 ,6,0,,0,7.,4.8,0.,4.8,,0,0.,4.8,0.,4.8
1979-07-19 23:17:27.710 ,6,0,,0,0.,4.8,0.,4.8,,0,0.,4.8,0.,4.8
1979-07-19 23:17:32.520 ,6,0,,0,0.,4.8,0.,4.8,,0,0.,4.8,0.,4.8
1979-07-19 23:17:37.310 ,7,0,,0,0.,4.8,0.,4.8,,0,0.,4.8,0.,4.8
1979-07-19 23:17:42.110 ,7,0,,0,0.,4.8,0.,4.8,,0,0.,4.8,0.,4.8
1979-07-19 23:17:46.910 ,7,0,,0,1.,4.8,0.,4.8,,0,0.,4.8,0.,4.8
1979-07-19 23:17:51.710 ,7,0,,0,15.,4.8,0.,4.8,,0,0.,4.8,0.,4.8
1979-07-19 23:17:56.510 ,7,0,,0,9.,4.8,0.,4.8,,0,0.,4.8,0.,4.8
1979-07-19 23:18:01.310 ,7,0,,0,18.,4.8,0.,4.8,,0,0.,4.8,0.,4.8
1979-07-19 23:18:06.110 ,7,0,,0,11.,4.8,0.,4.8,,0,0.,4.8,0.,4.8
1979-07-19 23:18:10.910 ,7,0,,0,4.,4.8,0.,4.8,,0,0.,4.8,0.,4.8
1979-07-19 23:18:15.710 ,7,0,,0,0.,4.8,0.,4.8,,0,0.,4.8,0.,4.8
1979-07-19 23:18:20.510 ,7,0,,0,0.,4.8,0.,4.8,,0,0.,4.8,0.,4.8
1979-07-19 23:18:25.310 ,7,0,,0,0.,4.8,0.,4.8,,0,0.,4.8,0.,4.8
1979-07-19 23:18:30.110 ,7,0,,0,0.,4.8,0.,4.8,,0,0.,4.8,0.,4.8
1979-07-19 23:18:34.910 ,7,0,,0,0.,4.8,0.,4.8,,0,0.,4.8,1.,4.8
1979-07-19 23:18:39.710 ,7,0,,0,16.,4.8,0.,4.8,,0,0.,4.8,0.,4.8
1979-07-19 23:18:44.510 ,7,0,,0,14.,4.8,0.,4.8,,0,0.,4.8,1.,4.8
1979-07-19 23:18:49.310 ,7,0,,0,8.,4.8,0.,4.8,,0,0.,4.8,0.,4.8
1979-07-19 23:18:54.110 ,7,0,,0,11.,4.8,0.,4.8,,0,0.,4.8,0.,4.8
1979-07-19 23:18:58.910 ,7,0,,0,5.,4.8,0.,4.8,,0,0.,4.8,0.,4.8
1979-07-19 23:19:03.710 ,7,0,,0,0.,4.8,0.,4.8,,0,0.,4.8,0.,4.8
1979-07-19 23:19:08.510 ,7,0,,0,0.,4.8,1.,4.8,,0,0.,4.8,0.,4.8
1979-07-19 23:19:13.310 ,6,0,,0,0.,4.8,0.,4.8,,0,0.,4.8,0.,4.8
1979-07-19 23:19:18.110 ,6,0,,0,0.,4.8,0.,4.8,,0,0.,4.8,1.,4.8
1979-07-19 23:19:22.910 ,6,0,,0,4.,4.8,0.,4.8,,0,0.,4.8,0.,4.8
1979-07-19 23:19:27.710 ,6,0,,0,7.,4.8,0.,4.8,,0,0.,4.8,2.,4.8
1979-07-19 23:19:32.520 ,6,0,,0,10.,4.8,1.,4.8,,0,0.,4.8,0.,4.8
1979-07-19 23:19:37.310 ,6,0,,0,4.,4.8,0.,4.8,,0,1.,4.8,0.,4.8
1979-07-19 23:19:42.110 ,6,0,,0,6.,4.8,0.,4.8,,0,0.,4.8,1.,4.8
1979-07-19 23:19:46.910 ,6,0,,0,9.,4.8,0.,4.8,,0,0.,4.8,0.,4.8
1979-07-19 23:19:51.710 ,6,0,,0,0.,4.8,0.,4.8,,0,0.,4.8,0.,4.8
1979-07-19 23:19:56.510 ,6,0,,0,0.,4.8,0.,4.8,,0,0.,4.8,0.,4.8
1979-07-19 23:20:01.310 ,5,0,,0,0.,4.8,0.,4.8,,0,0.,4.8,0.,4.8
1979-07-19 23:20:06.110 ,5,0,,0,0.,4.8,0.,4.8,,0,0.,4.8,6.,4.8
1979-07-19 23:20:10.910 ,5,0,,0,4.,4.8,0.,4.8,,0,0.,4.8,9.,4.8
1979-07-19 23:20:15.710 ,5,0,,0,20.,4.8,3.,4.8,,0,0.,4.8,8.,4.8
1979-07-19 23:20:20.510 ,5,0,,0,27.,4.8,2.,4.8,,0,0.,4.8,8.,4.8
1979-07-19 23:20:25.310 ,5,0,,0,31.,4.8,6.,4.8,,0,0.,4.8,11.,4.8
1979-07-19 23:20:30.110 ,5,0,,0,20.,4.8,0.,4.8,,0,0.,4.8,7.,4.8
1979-07-19 23:20:34.910 ,5,0,,0,17.,4.8,1.,4.8,,0,0.,4.8,12.,4.8
1979-07-19 23:20:39.710 ,5,0,,0,0.,4.8,0.,4.8,,0,0.,4.8,7.,4.8
1979-07-19 23:20:44.510 ,5,0,,0,0.,4.8,0.,4.8,,0,0.,4.8,12.,4.8
1979-07-19 23:20:49.310 ,4,0,,0,0.,4.8,0.,4.8,,0,0.,4.8,10.,4.8
1979-07-19 23:20:54.110 ,4,0,,0,0.,4.8,0.,4.8,,0,0.,4.8,172.,4.8
1979-07-19 23:20:58.910 ,4,0,,0,200.,4.8,7.,4.8,,0,0.,4.8,528.,4.8
1979-07-19 23:21:03.710 ,4,0,,0,1184.,4.8,30.,4.8,,0,0.,4.8,576.,4.8
1979-07-19 23:21:08.510 ,4,0,,0,1280.,4.8,25.,4.8,,0,0.,4.8,504.,4.8
1979-07-19 23:21:13.310 ,4,0,,0,1216.,4.8,31.,4.8,,0,0.,4.8,544.,4.8
1979-07-19 23:21:18.110 ,4,0,,0,1248.,4.8,30.,4.8,,0,0.,4.8,544.,4.8
1979-07-19 23:21:22.910 ,4,0,,0,1024.,4.8,20.,4.8,,0,0.,4.8,528.,4.8
1979-07-19 23:21:27.710 ,4,0,,0,0.,4.8,0.,4.8,,0,0.,4.8,480.,4.8
1979-07-19 23:21:32.510 ,4,0,,0,0.,4.8,0.,4.8,,0,0.,4.8,464.,4.8
1979-07-19 23:21:37.310 ,3,0,,0,0.,4.8,0.,4.8,,0,0.,4.8,440.,4.8
1979-07-19 23:21:42.110 ,3,0,,0,0.,4.8,0.,4.8,,0,0.,4.8,464.,4.8
1979-07-19 23:21:46.910 ,3,0,,0,172.,4.8,5.,4.8,,0,0.,4.8,480.,4.8
1979-07-19 23:21:51.710 ,3,0,,0,944.,4.8,31.,4.8,,0,0.,4.8,456.,4.8
1979-07-19 23:21:56.510 ,3,0,,0,928.,4.8,46.,4.8,,0,0.,4.8,480.,4.8
1979-07-19 23:22:01.310 ,3,0,,0,1024.,4.8,34.,4.8,,0,0.,4.8,504.,4.8
1979-07-19 23:22:06.110 ,3,0,,0,1088.,4.8,45.,4.8,,0,0.,4.8,528.,4.8
1979-07-19 23:22:10.910 ,3,0,,0,848.,4.8,38.,4.8,,0,0.,4.8,512.,4.8
1979-07-19 23:22:15.710 ,3,0,,0,0.,4.8,0.,4.8,,0,0.,4.8,504.,4.8
1979-07-19 23:22:20.510 ,3,0,,0,0.,4.8,0.,4.8,,0,0.,4.8,512.,4.8
1979-07-19 23:22:25.310 ,2,0,,0,0.,4.8,0.,4.8,,0,0.,4.8,544.,4.8
1979-07-19 23:22:30.110 ,2,0,,0,0.,4.8,0.,4.8,,0,0.,4.8,424.,4.8
1979-07-19 23:22:34.910 ,2,0,,0,13.,4.8,2.,4.8,,0,0.,4.8,20.,4.8
1979-07-19 23:22:39.710 ,2,0,,0,55.,4.8,9.,4.8,,0,0.,4.8,13.,4.8
1979-07-19 23:22:44.510 ,2,0,,0,68.,4.8,7.,4.8,,0,0.,4.8,20.,4.8
1979-07-19 23:22:49.310 ,2,0,,0,41.,4.8,5.,4.8,,0,0.,4.8,28.,4.8
1979-07-19 23:22:54.110 ,2,0,,0,72.,4.8,12.,4.8,,0,0.,4.8,25.,4.8
1979-07-19 23:22:58.910 ,2,0,,0,66.,4.8,7.,4.8,,0,0.,4.8,19.,4.8
1979-07-19 23:23:03.710 ,2,0,,0,0.,4.8,0.,4.8,,0,0.,4.8,26.,4.8
1979-07-19 23:23:08.510 ,2,0,,0,0.,4.8,0.,4.8,,0,0.,4.8,24.,4.8
1979-07-19 23:23:13.310 ,1,0,,0,0.,4.8,0.,4.8,,0,0.,4.8,20.,4.8
1979-07-19 23:23:18.110 ,1,0,,0,0.,4.8,0.,4.8,,0,0.,4.8,14.,4.8
1979-07-19 23:23:22.910 ,1,0,,0,0.,4.8,0.,4.8,,0,0.,4.8,0.,4.8
1979-07-19 23:23:27.710 ,1,0,,0,4.,4.8,0.,4.8,,0,0.,4.8,0.,4.8
1979-07-19 23:23:32.510 ,1,0,,0,5.,4.8,0.,4.8,,0,0.,4.8,1.,4.8
1979-07-19 23:23:37.310 ,1,0,,0,5.,4.8,0.,4.8,,0,0.,4.8,0.,4.8
1979-07-19 23:23:42.110 ,1,0,,0,4.,4.8,0.,4.8,,0,0.,4.8,0.,4.8
1979-07-19 23:23:46.910 ,1,0,,0,1.,4.8,0.,4.8,,0,0.,4.8,0.,4.8
1979-07-19 23:23:51.710 ,1,0,,0,0.,4.8,0.,4.8,,0,0.,4.8,0.,4.8
1979-07-19 23:23:56.510 ,1,0,,0,0.,4.8,1.,4.8,,0,0.,4.8,0.,4.8
1979-07-19 23:24:01.310 ,0,0,,0,0.,4.8,0.,4.8,,0,0.,4.8,0.,4.8
1979-07-19 23:24:06.110 ,0,0,,0,0.,4.8,0.,4.8,,0,0.,4.8,0.,4.8
1979-07-19 23:24:10.910 ,0,0,,0,0.,4.8,0.,4.8,,0,0.,4.8,0.,4.8
1979-07-19 23:24:15.710 ,0,0,,0,2.,4.8,0.,4.8,,0,0.,4.8,0.,4.8
1979-07-19 23:24:20.510 ,0,0,,0,0.,4.8,0.,4.8,,0,0.,4.8,0.,4.8
1979-07-19 23:24:25.310 ,0,0,,0,1.,4.8,0.,4.8,,0,0.,4.8,0.,4.8
1979-07-19 23:24:30.110 ,0,0,,0,0.,4.8,0.,4.8,,0,0.,4.8,0.,4.8
1979-07-19 23:24:34.910 ,0,0,,0,1.,4.8,0.,4.8,,0,0.,4.8,0.,4.8
1979-07-19 23:24:39.710 ,0,0,,0,0.,4.8,0.,4.8,,0,0.,4.8,0.,4.8
1979-07-19 23:24:44.510 ,0,0,,0,0.,4.8,0.,4.8,,0,0.,4.8,0.,4.8
1979-07-19 23:24:49.310 ,0,0,,0,0.,4.8,0.,4.8,,0,0.,4.8,0.,4.8
1979-07-19 23:24:54.110 ,0,0,,0,0.,4.8,0.,4.8,,0,0.,4.8,1.,4.8
1979-07-19 23:24:58.910 ,0,0,,0,1.,4.8,0.,4.8,,0,0.,4.8,0.,4.8
1979-07-19 23:25:03.710 ,0,0,,0,3.,4.8,0.,4.8,,0,0.,4.8,0.,4.8
1979-07-19 23:25:08.510 ,0,0,,0,1.,4.8,0.,4.8,,0,0.,4.8,0.,4.8
1979-07-19 23:25:13.310 ,0,0,,0,2.,4.8,0.,4.8,,0,0.,4.8,0.,4.8
1979-07-19 23:25:18.110 ,0,0,,0,3.,4.8,0.,4.8,,0,0.,4.8,0.,4.8
1979-07-19 23:25:22.910 ,0,0,,0,0.,4.8,0.,4.8,,0,0.,4.8,0.,4.8
1979-07-19 23:25:27.710 ,0,0,,0,0.,4.8,0.,4.8,,0,0.,4.8,0.,4.8
1979-07-19 23:25:32.510 ,0,0,,0,0.,4.8,0.,4.8,,0,0.,4.8,0.,4.8
1979-07-19 23:25:37.310 ,1,0,,0,0.,4.8,0.,4.8,,0,0.,4.8,0.,4.8
1979-07-19 23:25:42.110 ,1,0,,0,0.,4.8,0.,4.8,,0,0.,4.8,1.,4.8
1979-07-19 23:25:46.910 ,1,0,,0,0.,4.8,0.,4.8,,0,0.,4.8,1.,4.8
1979-07-19 23:25:51.710 ,1,0,,0,5.,4.8,0.,4.8,,0,0.,4.8,0.,4.8
1979-07-19 23:25:56.510 ,1,0,,0,2.,4.8,0.,4.8,,0,0.,4.8,2.,4.8
1979-07-19 23:26:01.310 ,1,0,,0,2.,4.8,0.,4.8,,0,0.,4.8,0.,4.8
1979-07-19 23:26:06.110 ,1,0,,0,7.,4.8,2.,4.8,,0,0.,4.8,2.,4.8
1979-07-19 23:26:10.910 ,1,0,,0,2.,4.8,0.,4.8,,0,0.,4.8,1.,4.8
1979-07-19 23:26:15.710 ,1,0,,0,0.,4.8,0.,4.8,,0,0.,4.8,3.,4.8
1979-07-19 23:26:20.510 ,1,0,,0,0.,4.8,0.,4.8,,0,0.,4.8,0.,4.8
1979-07-19 23:26:25.310 ,2,0,,0,0.,4.8,0.,4.8,,0,0.,4.8,0.,4.8
1979-07-19 23:26:30.110 ,2,0,,0,0.,4.8,0.,4.8,,0,0.,4.8,3.,4.8
1979-07-19 23:26:34.910 ,2,0,,0,9.,4.8,2.,4.8,,0,0.,4.8,16.,4.8
1979-07-19 23:26:39.710 ,2,0,,0,47.,4.8,8.,4.8,,0,0.,4.8,12.,4.8
1979-07-19 23:26:44.510 ,2,0,,0,37.,4.8,6.,4.8,,0,0.,4.8,10.,4.8
1979-07-19 23:26:49.310 ,2,0,,0,44.,4.8,8.,4.8,,0,0.,4.8,14.,4.8
1979-07-19 23:26:54.110 ,2,0,,0,35.,4.8,9.,4.8,,0,0.,4.8,8.,4.8
1979-07-19 23:26:58.910 ,2,0,,0,32.,4.8,5.,4.8,,0,0.,4.8,13.,4.8
1979-07-19 23:27:03.710 ,2,0,,0,0.,4.8,1.,4.8,,0,0.,4.8,12.,4.8
1979-07-19 23:27:08.510 ,2,0,,0,0.,4.8,0.,4.8,,0,0.,4.8,11.,4.8
1979-07-19 23:27:13.310 ,3,0,,0,0.,4.8,0.,4.8,,0,0.,4.8,12.,4.8
1979-07-19 23:27:18.110 ,3,0,,0,0.,4.8,0.,4.8,,0,0.,4.8,204.,4.8
1979-07-19 23:27:22.910 ,3,0,,0,252.,4.8,9.,4.8,,0,0.,4.8,688.,4.8
1979-07-19 23:27:27.710 ,3,0,,0,1536.,4.8,55.,4.8,,0,0.,4.8,672.,4.8
1979-07-19 23:27:32.510 ,3,0,,0,1568.,4.8,50.,4.8,,0,0.,4.8,688.,4.8
1979-07-19 23:27:37.310 ,3,0,,0,1504.,4.8,38.,4.8,,0,0.,4.8,688.,4.8
1979-07-19 23:27:42.110 ,3,0,,0,1536.,4.8,54.,4.8,,0,0.,4.8,672.,4.8
1979-07-19 23:27:46.910 ,3,0,,0,1248.,4.8,27.,4.8,,0,0.,4.8,576.,4.8
1979-07-19 23:27:51.710 ,3,0,,0,0.,4.8,0.,4.8,,0,0.,4.8,608.,4.8
1979-07-19 23:27:56.510 ,3,0,,0,0.,4.8,0.,4.8,,0,0.,4.8,560.,4.8
1979-07-19 23:28:01.310 ,4,0,,0,0.,4.8,0.,4.8,,0,0.,4.8,576.,4.8
1979-07-19 23:28:06.110 ,4,0,,0,0.,4.8,0.,4.8,,0,0.,4.8,640.,4.8
1979-07-19 23:28:10.910 ,4,0,,0,288.,4.8,1.,4.8,,0,0.,4.8,704.,4.8
1979-07-19 23:28:15.710 ,4,0,,0,1632.,4.8,47.,4.8,,0,0.,4.8,592.,4.8
1979-07-19 23:28:20.510 ,4,0,,0,1664.,4.8,43.,4.8,,0,0.,4.8,624.,4.8
1979-07-19 23:28:25.310 ,4,0,,0,1632.,4.8,43.,4.8,,0,0.,4.8,592.,4.8
1979-07-19 23:28:30.110 ,4,0,,0,1664.,4.8,32.,4.8,,0,0.,4.8,544.,4.8
1979-07-19 23:28:34.910 ,4,0,,0,1280.,4.8,23.,4.8,,0,0.,4.8,480.,4.8
1979-07-19 23:28:39.710 ,4,0,,0,0.,4.8,0.,4.8,,0,0.,4.8,496.,4.8
1979-07-19 23:28:44.510 ,4,0,,0,0.,4.8,0.,4.8,,0,0.,4.8,472.,4.8
1979-07-19 23:28:49.310 ,5,0,,0,0.,4.8,0.,4.8,,0,0.,4.8,416.,4.8
1979-07-19 23:28:54.110 ,5,0,,0,0.,4.8,0.,4.8,,0,0.,4.8,264.,4.8
1979-07-19 23:28:58.910 ,5,0,,0,4.,4.8,1.,4.8,,0,0.,4.8,13.,4.8
1979-07-19 23:29:03.710 ,5,0,,0,38.,4.8,2.,4.8,,0,1.,4.8,18.,4.8
1979-07-19 23:29:08.510 ,5,0,,0,26.,4.8,2.,4.8,,0,0.,4.8,12.,4.8
1979-07-19 23:29:13.310 ,5,0,,0,44.,4.8,8.,4.8,,0,0.,4.8,19.,4.8
1979-07-19 23:29:18.110 ,5,0,,0,40.,4.8,4.,4.8,,0,0.,4.8,10.,4.8
1979-07-19 23:29:22.910 ,5,0,,0,45.,4.8,6.,4.8,,0,0.,4.8,16.,4.8
1979-07-19 23:29:27.710 ,5,0,,0,0.,4.8,0.,4.8,,0,0.,4.8,15.,4.8
1979-07-19 23:29:32.510 ,5,0,,0,0.,4.8,0.,4.8,,0,0.,4.8,16.,4.8
1979-07-19 23:29:37.310 ,6,0,,0,0.,4.8,0.,4.8,,0,0.,4.8,16.,4.8
1979-07-19 23:29:42.110 ,6,0,,0,0.,4.8,0.,4.8,,0,0.,4.8,13.,4.8
1979-07-19 23:29:46.910 ,6,0,,0,0.,4.8,0.,4.8,,0,0.,4.8,0.,4.8
1979-07-19 23:29:51.710 ,6,0,,0,4.,4.8,0.,4.8,,0,0.,4.8,0.,4.8
1979-07-19 23:29:56.510 ,6,0,,0,3.,4.8,0.,4.8,,0,0.,4.8,1.,4.8